TimeCST,TemperatureF,Dew PointF,Humidity,Sea Level PressureIn,VisibilityMPH,Wind Direction,Wind SpeedMPH,Gust SpeedMPH,PrecipitationIn,Events,Conditions,WindDirDegrees,DateUTC
12:53 AM,46.9,39.0,74,29.77,10.0,SSW,15.0,-,N/A,,Clear,200,2011-11-25 06:53:00
1:53 AM,48.2,39.2,71,29.78,10.0,SSW,13.8,-,N/A,,Clear,200,2011-11-25 07:53:00
2:53 AM,46.0,39.9,79,29.77,10.0,SSW,13.8,-,N/A,,Clear,210,2011-11-25 08:53:00
3:53 AM,46.4,39.2,76,29.76,10.0,SSW,16.1,-,N/A,,Clear,200,2011-11-25 09:53:00
4:53 AM,46.9,42.1,83,29.75,10.0,SSW,16.1,-,N/A,,Clear,200,2011-11-25 10:53:00
5:53 AM,45.0,41.0,86,29.74,8.0,SSW,16.1,-,N/A,,Clear,200,2011-11-25 11:53:00
6:53 AM,44.1,41.0,89,29.75,7.0,South,10.4,-,N/A,,Clear,190,2011-11-25 12:53:00
7:53 AM,43.0,41.0,93,29.74,5.0,South,11.5,-,N/A,,Clear,190,2011-11-25 13:53:00
8:53 AM,45.0,42.1,90,29.75,5.0,South,12.7,-,N/A,,Mostly Cloudy,190,2011-11-25 14:53:00
9:13 AM,46.4,42.8,87,29.76,5.0,SSW,11.5,-,N/A,,Overcast,200,2011-11-25 15:13:00
9:53 AM,48.0,44.1,86,29.76,5.0,SSW,15.0,24.2,N/A,,Overcast,210,2011-11-25 15:53:00
10:53 AM,48.9,44.1,83,29.76,5.0,SSW,19.6,-,N/A,,Haze,210,2011-11-25 16:53:00
11:00 AM,48.2,44.6,87,29.76,5.0,SSW,16.1,-,N/A,,Haze,210,2011-11-25 17:00:00
11:53 AM,50.0,44.1,80,29.73,6.0,SSW,16.1,23.0,N/A,,Haze,210,2011-11-25 17:53:00
12:53 PM,50.0,44.1,80,29.72,6.0,SSW,19.6,25.3,N/A,,Haze,210,2011-11-25 18:53:00
1:46 PM,51.8,44.6,76,29.71,6.0,SSW,16.1,23.0,N/A,,Haze,200,2011-11-25 19:46:00
1:53 PM,51.1,45.0,80,29.70,6.0,South,12.7,23.0,N/A,,Haze,190,2011-11-25 19:53:00
2:53 PM,51.1,45.0,80,29.66,6.0,South,15.0,23.0,N/A,,Haze,170,2011-11-25 20:53:00
3:53 PM,51.1,45.0,80,29.70,5.0,South,13.8,-,N/A,,Haze,190,2011-11-25 21:53:00
4:53 PM,50.0,45.0,83,29.70,6.0,South,12.7,-,N/A,,Haze,180,2011-11-25 22:53:00
5:53 PM,50.0,45.0,83,29.71,6.0,South,15.0,21.9,N/A,,Haze,180,2011-11-25 23:53:00
6:53 PM,48.9,45.0,86,29.71,5.0,South,17.3,-,N/A,,Overcast,170,2011-11-26 00:53:00
7:53 PM,48.9,45.0,86,29.71,5.0,South,13.8,-,N/A,,Overcast,170,2011-11-26 01:53:00
8:53 PM,48.9,45.0,86,29.71,5.0,South,11.5,-,N/A,,Overcast,170,2011-11-26 02:53:00
9:13 PM,48.2,44.6,87,29.71,5.0,SSE,9.2,-,N/A,,Overcast,160,2011-11-26 03:13:00
9:53 PM,48.2,44.6,87,29.71,5.0,SSE,8.1,-,N/A,Rain,Light Rain,160,2011-11-26 03:53:00
10:17 PM,48.2,46.4,93,29.71,4.0,South,8.1,-,0.01,Rain,Light Rain,170,2011-11-26 04:17:00
10:39 PM,48.2,46.4,93,29.70,2.5,South,8.1,-,0.03,Rain,Light Rain,170,2011-11-26 04:39:00
10:53 PM,48.0,46.9,96,29.69,2.5,South,8.1,-,0.04,Rain,Light Rain,170,2011-11-26 04:53:00
11:01 PM,48.2,46.4,93,29.69,3.0,South,9.2,-,0.01,Rain,Light Rain,170,2011-11-26 05:01:00
11:25 PM,48.2,46.4,93,29.70,2.5,South,9.2,-,0.02,Rain,Light Rain,170,2011-11-26 05:25:00
11:34 PM,48.2,46.4,93,29.70,3.0,South,9.2,-,0.02,Rain,Light Rain,180,2011-11-26 05:34:00
11:44 PM,48.2,46.4,93,29.69,2.5,South,10.4,-,0.03,Rain,Light Rain,170,2011-11-26 05:44:00